When you browse on this site, cookies collect data to enhance your experience and personalize the content and advertising you see.
Visit our Privacy Policy to learn more. By continuing to use the site, you agree to this use of cookies and data.
  • In Hungary
  • List of Countries
  • For 7 days
  • Water Temperature
  • Weather Map
  • News
  • Weather Widgets
  • user-avatar
    Login

    Hourly Weather Syvir

    Today, 7 April, Tuesday

    Time Temperature Precipitation Wind Pressure Humidity
    00:00 +6°C° 0 mm 2 mps 755 mmHg 49%
    01:00 +5°C° 0 mm 2 mps 755 mmHg 49%
    02:00 +5°C° 0 mm 2 mps 754 mmHg 50%
    03:00 +5°C° 0 mm 2 mps 754 mmHg 50%
    04:00 +4°C° 0 mm 2 mps 754 mmHg 51%
    05:00 +4°C° 0 mm 2 mps 754 mmHg 51%
    06:00 +5°C° 0 mm 2 mps 754 mmHg 49%
    07:00 +7°C° 0 mm 3 mps 755 mmHg 47%
    08:00 +8°C° 0 mm 3 mps 755 mmHg 43%
    09:00 +10°C° 0 mm 4 mps 755 mmHg 39%
    10:00 +12°C° 0 mm 4 mps 755 mmHg 34%
    11:00 +13°C° 0 mm 5 mps 755 mmHg 29%
    12:00 +14°C° 0 mm 4 mps 755 mmHg 29%
    13:00 +15°C° 0 mm 4 mps 755 mmHg 28%
    14:00 +18°C° 0 mm 3 mps 754 mmHg 28%
    15:00 +17°C° 0 mm 3 mps 754 mmHg 29%
    16:00 +17°C° 0 mm 3 mps 753 mmHg 30%
    17:00 +17°C° 0 mm 3 mps 753 mmHg 32%
    18:00 +14°C° 0 mm 3 mps 753 mmHg 36%
    19:00 +12°C° 0 mm 3 mps 753 mmHg 40%
    20:00 +10°C° 0 mm 3 mps 753 mmHg 44%
    21:00 +10°C° 0 mm 3 mps 753 mmHg 44%
    22:00 +9°C° 0 mm 3 mps 753 mmHg 45%
    23:00 +9°C° 0 mm 3 mps 753 mmHg 45%

    Tomorrow, 8 April, Wednesday

    Time Temperature Precipitation Wind Pressure Humidity
    00:00 +8°C° 0 mm 3 mps 752 mmHg 46%
    01:00 +8°C° 0 mm 3 mps 752 mmHg 47%
    02:00 +7°C° 0 mm 3 mps 752 mmHg 48%
    03:00 +7°C° 0 mm 3 mps 752 mmHg 49%
    04:00 +7°C° 0 mm 3 mps 752 mmHg 51%
    05:00 +5°C° 0 mm 3 mps 752 mmHg 52%
    06:00 +8°C° 0 mm 3 mps 752 mmHg 53%
    07:00 +9°C° 0 mm 3 mps 752 mmHg 55%
    08:00 +10°C° 0 mm 3 mps 752 mmHg 56%
    09:00 +12°C° 0 mm 3 mps 751 mmHg 54%
    10:00 +13°C° 0 mm 3 mps 751 mmHg 51%
    11:00 +16°C° 0 mm 3 mps 751 mmHg 49%
    12:00 +17°C° 0 mm 4 mps 751 mmHg 48%
    13:00 +18°C° 0 mm 4 mps 750 mmHg 47%
    14:00 +18°C° 0 mm 4 mps 750 mmHg 45%
    15:00 +18°C° 0 mm 4 mps 750 mmHg 44%
    16:00 +18°C° 0 mm 4 mps 749 mmHg 43%
    17:00 +17°C° 0 mm 4 mps 749 mmHg 41%
    18:00 +14°C° 0 mm 3 mps 749 mmHg 45%
    19:00 +14°C° 0 mm 2 mps 749 mmHg 49%
    20:00 +12°C° 0 mm 2 mps 749 mmHg 53%
    21:00 +11°C° 0 mm 1 mps 748 mmHg 55%
    22:00 +10°C° 0 mm 1 mps 748 mmHg 58%
    23:00 +9°C° 0 mm 0 mps 748 mmHg 60%

    Day after tomorrow, 9 April, Thursday

    Time Temperature Precipitation Wind Pressure Humidity
    00:00 +8°C° 0 mm 0 mps 748 mmHg 62%
    01:00 +8°C° 0 mm 0 mps 748 mmHg 64%
    02:00 +7°C° 0 mm 0 mps 748 mmHg 66%
    03:00 +7°C° 0 mm 0 mps 747 mmHg 67%
    04:00 +8°C° 0 mm 1 mps 747 mmHg 68%
    05:00 +7°C° 0 mm 1 mps 747 mmHg 69%
    06:00 +9°C° 0 mm 1 mps 747 mmHg 65%
    07:00 +10°C° 0 mm 1 mps 746 mmHg 61%
    08:00 +12°C° 0 mm 2 mps 746 mmHg 57%
    09:00 +13°C° 0 mm 2 mps 746 mmHg 54%
    10:00 +15°C° 0 mm 2 mps 746 mmHg 51%
    11:00 +17°C° 0 mm 3 mps 745 mmHg 47%
    12:00 +18°C° 0 mm 3 mps 745 mmHg 45%
    13:00 +19°C° 0 mm 4 mps 744 mmHg 42%
    14:00 +20°C° 0 mm 4 mps 744 mmHg 39%
    15:00 +20°C° 0 mm 4 mps 743 mmHg 39%
    16:00 +19°C° 0 mm 4 mps 743 mmHg 39%
    17:00 +19°C° 0 mm 4 mps 742 mmHg 40%
    18:00 +17°C° 0 mm 4 mps 742 mmHg 45%
    19:00 +14°C° 0 mm 3 mps 742 mmHg 51%
    20:00 +14°C° 0 mm 2 mps 742 mmHg 56%
    21:00 +13°C° 0 mm 2 mps 742 mmHg 58%
    22:00 +11°C° 0 mm 3 mps 742 mmHg 61%
    23:00 +11°C° 0 mm 3 mps 742 mmHg 63%

    10 April, Friday

    Time Temperature Precipitation Wind Pressure Humidity
    00:00 +10°C° 0 mm 3 mps 742 mmHg 68%
    01:00 +10°C° 0 mm 3 mps 742 mmHg 72%
    02:00 +9°C° 0 mm 3 mps 742 mmHg 76%
    03:00 +8°C° 0.1 mm 4 mps 742 mmHg 78%
    04:00 +7°C° 0.1 mm 4 mps 742 mmHg 80%
    05:00 +7°C° 0.1 mm 5 mps 742 mmHg 82%
    06:00 +7°C° 0 mm 6 mps 743 mmHg 77%
    07:00 +7°C° 0 mm 6 mps 743 mmHg 72%
    08:00 +5°C° 0 mm 7 mps 744 mmHg 67%
    09:00 +6°C° 0 mm 7 mps 744 mmHg 62%
    10:00 +8°C° 0 mm 7 mps 744 mmHg 56%
    11:00 +9°C° 0 mm 7 mps 745 mmHg 51%
    12:00 +9°C° 0 mm 7 mps 745 mmHg 47%
    13:00 +9°C° 0 mm 6 mps 745 mmHg 43%
    14:00 +10°C° 0 mm 6 mps 745 mmHg 39%
    15:00 +10°C° 0 mm 6 mps 745 mmHg 40%
    16:00 +9°C° 0 mm 6 mps 745 mmHg 41%
    17:00 +9°C° 0 mm 5 mps 745 mmHg 42%
    18:00 +8°C° 0 mm 4 mps 745 mmHg 46%
    19:00 +7°C° 0 mm 4 mps 746 mmHg 51%
    20:00 +5°C° 0 mm 3 mps 746 mmHg 55%
    21:00 +6°C° 0 mm 2 mps 746 mmHg 58%
    22:00 +5°C° 0 mm 2 mps 746 mmHg 61%
    23:00 +5°C° 0 mm 2 mps 746 mmHg 63%

    11 April, Saturday

    Time Temperature Precipitation Wind Pressure Humidity
    00:00 +4°C° 0 mm 2 mps 746 mmHg 65%
    01:00 +4°C° 0 mm 2 mps 746 mmHg 66%
    02:00 +4°C° 0 mm 2 mps 746 mmHg 68%
    03:00 +3°C° 0 mm 2 mps 746 mmHg 69%
    04:00 +3°C° 0 mm 2 mps 747 mmHg 70%
    05:00 +3°C° 0 mm 2 mps 747 mmHg 71%
    06:00 +4°C° 0 mm 2 mps 747 mmHg 68%
    07:00 +5°C° 0 mm 2 mps 747 mmHg 64%
    08:00 +6°C° 0 mm 2 mps 747 mmHg 61%
    09:00 +7°C° 0 mm 3 mps 748 mmHg 56%
    10:00 +9°C° 0 mm 3 mps 748 mmHg 51%
    11:00 +10°C° 0 mm 4 mps 748 mmHg 46%
    12:00 +11°C° 0 mm 4 mps 748 mmHg 43%
    13:00 +11°C° 0 mm 4 mps 748 mmHg 41%
    14:00 +12°C° 0 mm 4 mps 748 mmHg 38%
    15:00 +11°C° 0 mm 4 mps 748 mmHg 37%
    16:00 +11°C° 0 mm 4 mps 747 mmHg 37%
    17:00 +10°C° 0 mm 4 mps 747 mmHg 36%
    18:00 +8°C° 0 mm 4 mps 747 mmHg 40%
    19:00 +8°C° 0 mm 3 mps 748 mmHg 43%
    20:00 +5°C° 0 mm 3 mps 748 mmHg 47%
    21:00 +5°C° 0 mm 3 mps 748 mmHg 47%
    22:00 +5°C° 0 mm 2 mps 748 mmHg 48%
    23:00 +5°C° 0 mm 2 mps 749 mmHg 49%

    12 April, Sunday

    Time Temperature Precipitation Wind Pressure Humidity
    00:00 +5°C° 0 mm 2 mps 749 mmHg 50%
    01:00 +4°C° 0 mm 2 mps 749 mmHg 51%
    02:00 +4°C° 0 mm 2 mps 749 mmHg 52%
    03:00 +3°C° 0 mm 2 mps 749 mmHg 54%
    04:00 +3°C° 0 mm 2 mps 748 mmHg 56%
    05:00 +2°C° 0 mm 2 mps 748 mmHg 57%
    06:00 +4°C° 0 mm 2 mps 748 mmHg 55%
    07:00 +5°C° 0 mm 2 mps 748 mmHg 52%
    08:00 +5°C° 0 mm 3 mps 748 mmHg 49%
    09:00 +7°C° 0 mm 3 mps 748 mmHg 45%
    10:00 +9°C° 0 mm 3 mps 748 mmHg 40%
    11:00 +11°C° 0 mm 3 mps 747 mmHg 36%
    12:00 +12°C° 0 mm 3 mps 747 mmHg 35%
    13:00 +12°C° 0 mm 3 mps 746 mmHg 34%
    14:00 +13°C° 0 mm 3 mps 746 mmHg 33%
    15:00 +14°C° 0 mm 3 mps 745 mmHg 35%
    16:00 +14°C° 0 mm 3 mps 745 mmHg 36%
    17:00 +14°C° 0 mm 3 mps 744 mmHg 38%
    18:00 +12°C° 0 mm 3 mps 744 mmHg 43%
    19:00 +11°C° 0 mm 3 mps 743 mmHg 49%
    20:00 +9°C° 0 mm 3 mps 743 mmHg 55%
    21:00 +9°C° 0 mm 3 mps 743 mmHg 57%
    22:00 +9°C° 0 mm 3 mps 743 mmHg 59%
    23:00 +7°C° 0 mm 4 mps 742 mmHg 61%
    Show more